sat.trackr.live / text

‹ back to catalog

STARLINK-38033

NORAD 69739 · 2026-150A

PAYLOAD ACTIVE UNKNOWN

§ Identity

Operator
Country
US
Launch date
2026-07-02
Launch site
AFWTR
Launch vehicle
Mass (kg)
RCS (m²)

Purposes: comms

External: N2YO · Heavens-Above · Gunter

§ Orbital elements

Epoch: 2026-09-19T23:38:39.503616Z

Period
93.91 min
Inclination
97.2832°
Eccentricity
0.0002200
Mean motion
15.33452062 rev/d
Perigee alt
464.0 km
Apogee alt
467.0 km
Semi-major
6,843.7 km
B*
4.9425e-4
RAAN
101.8703°
Arg perigee
87.7129°
Mean anomaly
272.4366°
Rev number
1,365

§ Raw data

STARLINK-380331 69739U 26150A   26262.98517944  .00015919  00000+0  49425-3 0  99942 69739  97.2832 101.8703 0002200  87.7129 272.4366 15.33452062 13651

JSON: /api/v1/satellites/69739 · /tle

For live sub-satellite position, see the globe view (requires WebGL).

§ Visibility from observer

Set your observer location to see the next 7 days of passes ≥ 10°. The values pass through the URL so the page stays shareable.

No JS? Fill the form by hand. The geolocation button needs JavaScript.